Weather History for Hattiesburg, MS

Change the Weather History Date:

Monday, November 19, 2012

  Actual Average Record
Temperature  
Mean Temperature 54 °F 56 °F  
Max Temperature 71 °F 69 °F 84 °F (1986)
Min Temperature 36 °F 44 °F 20 °F (1951)
Degree Days  
Heating Degree Days 11 9  
Month to date heating degree days 181 132  
Since 1 July heating degree days 256 207  
Cooling Degree Days 0 1  
Month to date cooling degree days 7 23  
Year to date cooling degree days 2714 2385  
Growing Degree Days 4 (Base 50)    
Moisture  
Dew Point 42 °F    
Average Humidity 66    
Maximum Humidity 93    
Minimum Humidity 38    
Precipitation  
Precipitation 0.00 in 0.14 in 2.33 in (1952)
Month to date precipitation 0.43 2.53  
Year to date precipitation 60.06 52.52  
Sea Level Pressure  
Sea Level Pressure 30.25 in    
Wind  
Wind Speed 1 mph (North)    
Max Wind Speed 10 mph    
Max Gust Speed 30 mph    
Visibility 10 miles    
Events      
T = Trace of Precipitation, MM = Missing Value Source: NWS Daily Summary

Daily Weather History Graph

Daily Weather History Graph

Search for Another Location

Airport:

Trip Planner

Search our weather history database for the weather conditions in past years. The results will help you decide how hot, cold, wet, or windy it might be!

Date:

Astronomy

Nov. 19, 2012 Rise Set
Actual Time 6:28 AM CST 4:56 PM CST
Civil Twilight 6:02 AM CST 5:22 PM CST
Nautical Twilight 5:32 AM CST 5:51 PM CST
Astronomical Twilight 5:03 AM CST 6:20 PM CST
Moon 11:39 AM CST (11/19) 11:13 PM CST (11/19)
Length of Visible Light 11h 20m
Length of Day
10h 28m
Waxing Crescent, 41% of the Moon is Illuminated
Nov 19
Waxing Crescent
Nov 20
First Quarter
Nov 28
Full
Dec 6
Last Quarter
Dec 13
New

Hourly Weather History & Observations

Time (CST) Temp. Dew Point Humidity Pressure Visibility Wind Dir Wind Speed Gust Speed Precip Events Conditions
12:53 AM 39.0 °F 36.0 °F 89% 30.31 in 10.0 mi Calm Calm - N/A   Clear
1:53 AM 39.0 °F 36.0 °F 89% 30.31 in 9.0 mi Calm Calm - N/A   Clear
2:53 AM 37.0 °F 34.0 °F 89% 30.29 in 10.0 mi Calm Calm - N/A   Clear
3:53 AM 37.0 °F 34.0 °F 89% 30.28 in 9.0 mi Calm Calm - N/A   Clear
4:53 AM 37.9 °F 35.1 °F 89% 30.29 in 10.0 mi Calm Calm - N/A   Clear
5:53 AM 37.9 °F 36.0 °F 93% 30.29 in 10.0 mi Calm Calm - N/A   Clear
6:53 AM 37.9 °F 36.0 °F 93% 30.30 in 10.0 mi Calm Calm - N/A   Clear
7:53 AM 43.0 °F 39.0 °F 86% 30.30 in 10.0 mi Calm Calm - N/A   Clear
8:53 AM 52.0 °F 43.0 °F 71% 30.31 in 10.0 mi Calm Calm - N/A   Clear
11:53 AM 68.0 °F 44.1 °F 42% 30.27 in 10.0 mi NNW 5.8 mph 29.9 mph N/A   Clear
12:53 PM 71.1 °F 45.0 °F 39% 30.25 in 10.0 mi Variable 4.6 mph - N/A   Clear
1:53 PM 70.0 °F 46.0 °F 42% 30.22 in 10.0 mi Variable 3.5 mph - N/A   Clear
2:53 PM 71.1 °F 45.0 °F 39% 30.20 in 10.0 mi North 3.5 mph - N/A   Clear
3:53 PM 70.0 °F 46.0 °F 42% 30.19 in 10.0 mi North 5.8 mph - N/A   Clear
4:53 PM 63.0 °F 48.0 °F 58% 30.19 in 10.0 mi Calm Calm - N/A   Clear
5:53 PM 55.9 °F 48.0 °F 75% 30.20 in 10.0 mi Calm Calm - N/A   Clear
6:53 PM 52.0 °F 48.9 °F 89% 30.21 in 10.0 mi Calm Calm - N/A   Clear
7:53 PM 50.0 °F 46.9 °F 89% 30.22 in 10.0 mi Calm Calm - N/A   Clear
8:53 PM 48.9 °F 46.0 °F 90% 30.22 in 10.0 mi Calm Calm - N/A   Clear
9:53 PM 46.9 °F 44.1 °F 90% 30.22 in 10.0 mi Calm Calm - N/A   Clear
10:53 PM 45.0 °F 43.0 °F 93% 30.21 in 7.0 mi Calm Calm - N/A   Clear
11:53 PM 44.1 °F 42.1 °F 93% 30.21 in 8.0 mi Calm Calm - N/A   Clear